User: anonymous   Login
Location: Sabalos
(43.2860°N, 0.1414°E)
Time: 00:30:21
(UTC+00:00)
Language:

Cosmos 1758 Rocket - Orbit

View from above orbital plane
View from above orbital plane
View from above satellite
View from above satellite

Ground track
Ground track

The orbit data is extracted from the following two-line orbital elements,

1 16792U 86046B   21167.54365916  .00000097  00000-0  88497-5 0  9992
2 16792  82.4835 268.1004 0024710 160.8661 199.3488 14.83287408891342
Epoch (UTC): 16 June 2021 13:02:52
Eccentricity: 0.0024710
inclination: 82.4835°
perigee height: 601 km
apogee height: 636 km
right ascension of ascending node: 268.1004°
argument of perigee: 160.8661°
revolutions per day: 14.83287408
mean anomaly at epoch: 199.3488°
orbit number at epoch: 89134

The dashed part of the orbit path shows where the satellite is in the earth's shadow,  

DLR